Wilmington, OH NWS (KILN) Doppler Radar Loop using GRLevel3 Software
Last 10 volume scans
Wilmington, OH Radar using GRLevel3

                    
                     

Wilmington, OH NWS Radar Loop
Wilmington OH Radar Loop

Regional Radar Loop
Regional Radar Loop

Eastern US Sector IR Image
Eastern US Sector IR Image

Latest image from the National Oceanic and Atmospheric Administration (NOAA) Geostationary Satellite Server.


SPC Day 1 Categorical Outlook
SPC Day 1 Categorical Outlook

Category Criteria
Thunderstorms - 10% or greater probability of non-severe or near severe thunderstorms.
1: Marginal - 2% tornado probability, or
- 5% severe hail or severe wind probability.
2: Slight - 5% tornado probability, or
- 15% severe hail or severe wind probability WITH OR WITHOUT 10% or greater probability of hail 2 inches or greater in diameter, or wind gusts 75 mph or greater.
3: Enhanced - 10% tornado probability WITH OR WITHOUT 10% or greater probability of an EF2+ tornado, or
- 15% tornado probability, or
- 30% severe hail or severe wind probability WITH OR WITHOUT 10% or greater probability of hail 2 inches or greater in diameter, or wind gusts 75 mph or greater, or
- 45% probability of severe hail or wind.
4: Moderate - 15% tornado probability AND 10% or greater probability of an EF2+ tornado, or
- 30% tornado probability, or
- 45% severe wind probability AND 10% or greater probability of a wind gusts 75 mph or greater, or
- 45% severe hail probability AND 10% or greater probability of hail 2 inches or greater in diameter, or
- 60% severe wind probability, or
- 60% severe hail probability WITH OR WITHOUT 10% or greater probability of hail 2 inches or greater in diameter.
5: High - 30% tornado probability AND 10% or greater probability of an EF2+ tornado, or
- 45% or greater tornado probability WITH OR WITHOUT 10% or greater probability of an EF2+ tornado, or
- 60% severe wind probability AND a 10% or greater probability of a wind gust 75 mph or greater.

NOAA Day 1 National Forecast Map
NOAA Day 1 National Forcast Map

Day 1 Precipitation Forecast
Day 1 Precipitation Forecast


SPC Day 2 Categorical Outlook
SPC Day 2 Categorical Outlook

NOAA Day 2 National Forecast Map
NOAA Day 2 National Forcast Map

Day 2 Precipitation Forecast
Day 2 Precipitation Forecast


SPC Day 3 Categorical Outlook
SPC Day 3 Categorical Outlook

NOAA Day 3 National Forecast Map
NOAA Day 3 National Forcast Map

Day 3 Precipitation Forecast
Day 3 Precipitation Forecast


National Weather Service Regional Observations

Station State Time Temperature Dew Point RH Wind Heat Index Wind Chill Pressure Visibility Weather
Charleston West Virginia 8/18/2017 5:54:00 PM 82.9 66.0 57 W (270) at 8 85.1 N/A 29.88 10.0 --
Chicago O'hare Illinois 8/18/2017 5:51:00 PM 82.0 57.0 43 W (280) at 14, 21 gusts 81.9 N/A 29.84 10.0 --
Cleveland Ohio 8/18/2017 5:51:00 PM 82.9 61.0 48 W (260) at 16, 26 gusts 83.5 N/A 29.83 10.0 --
Columbus Ohio 8/18/2017 5:51:00 PM 81.0 64.9 58 W (280) at 16 82.8 N/A 29.86 10.0 --
Covington Kentucky 8/18/2017 5:52:00 PM 82.9 64.0 53 W (270) at 10 84.4 N/A 29.91 10.0 --
Dayton Ohio 8/18/2017 4:56:00 PM 82.0 63.0 53 W (270) at 15, 23 gusts 83.1 N/A 29.90 10.0 --
Dothan Alabama 8/18/2017 5:53:00 PM 91.9 75.9 60 N (350) at 7 104.4 N/A 29.99 10.0 --
Evansville Indiana 8/18/2017 5:54:00 PM 86.0 64.0 48 W (260) at 10 87.4 N/A 29.94 10.0 --
Fort Wayne Indiana 8/18/2017 5:54:00 PM 79.0 62.1 56 W (270) at 14 80.4 N/A 29.87 10.0 --
Frankfort Kentucky 8/18/2017 5:53:00 PM 84.9 60.1 43 WNW (290) at 8 84.9 N/A 29.92 10.0 --
Huntsville Alabama 8/18/2017 5:53:00 PM 89.1 66.0 47 WNW (290) at 8 91.6 N/A 29.97 10.0 --
Indianapolis Indiana 8/18/2017 5:54:00 PM 84.0 61.0 46 W (280) at 12 84.4 N/A 29.89 10.0 --
Knoxville Tennessee 8/18/2017 5:53:00 PM 84.9 64.9 51 W (280) at 7 86.7 N/A 29.94 10.0 --
Lexington Kentucky 8/18/2017 5:54:00 PM 84.0 63.0 49 WSW (250) at 14, 18 gusts 85.1 N/A 29.94 10.0 --
Louisville Kentucky 8/18/2017 4:56:00 PM 87.1 63.0 45 WNW (290) at 13, 20 gusts 88.0 N/A 29.92 10.0 --
Nashville Tennessee 8/18/2017 5:53:00 PM 88.0 63.0 43 Variable at 3 88.9 N/A 29.97 10.0 --
Noctor/Jackson Kentucky 8/18/2017 5:53:00 PM 81.0 63.0 54 WNW (300) at 7 82.2 N/A 29.96 10.0 --
Paducah Kentucky 8/18/2017 5:53:00 PM 87.1 61.0 42 Calm 87.1 N/A 29.94 10.0 --
Pittsburgh Pennsylvania 8/18/2017 5:51:00 PM 82.0 61.0 49 W (270) at 12 82.6 N/A 29.84 10.0 --
St. Louis Missouri 8/18/2017 5:51:00 PM 88.0 63.0 43 W (260) at 13 88.9 N/A 29.92 10.0 --
Wilmington Ohio 8/18/2017 5:54:00 PM 82.0 64.9 56 WNW (300) at 12, 17 gusts 83.8 N/A 29.90 10.0 --

These are regional hourly observations made by the National Weather Service. The observations are usually made between 50 and 59 minutes past the hour and are usually available by 15 minutes past the next hour.


This page will reload automatically every 10 minutes.

35,816 Page Views